timestamp,wind_dir_avg,wind_spd_avg,wind_spd_max_dir,wind_spd_gust,battery_voltage,lat,long
2023-12-17 00:04:00+00:00,321.0,7.94,326.0,9.82,12.33,47.59359,-54.27349
2023-12-17 00:14:00+00:00,325.0,11.08,324.0,13.01,12.33,47.59359,-54.27349
2023-12-17 00:24:00+00:00,321.0,10.91,303.0,15.33,12.33,47.59359,-54.27349
2023-12-17 00:34:00+00:00,324.0,7.06,323.0,9.26,12.33,47.59359,-54.27349
2023-12-17 00:44:00+00:00,314.0,10.11,300.0,16.64,12.33,47.59359,-54.27349
2023-12-17 00:54:00+00:00,316.0,11.09,302.0,16.27,12.33,47.59359,-54.27349
2023-12-17 01:04:00+00:00,312.0,13.02,308.0,17.87,12.33,47.59359,-54.27349
2023-12-17 01:14:00+00:00,330.0,11.07,329.0,13.3,12.25,47.59359,-54.27349
2023-12-17 01:24:00+00:00,315.0,11.89,299.0,16.04,12.25,47.59359,-54.27349
2023-12-17 01:34:00+00:00,318.0,13.33,313.0,18.18,12.25,47.59359,-54.27349
2023-12-17 01:44:00+00:00,318.0,12.13,305.0,16.92,12.25,47.59359,-54.27349
2023-12-17 01:54:00+00:00,327.0,12.18,327.0,14.72,12.25,47.59359,-54.27349
2023-12-17 02:04:00+00:00,319.0,13.75,310.0,17.68,12.25,47.59359,-54.27349
2023-12-17 02:14:00+00:00,328.0,12.85,334.0,14.75,12.17,47.59359,-54.27349
2023-12-17 02:24:00+00:00,322.0,12.81,316.0,18.9,12.17,47.59359,-54.27349
2023-12-17 02:34:00+00:00,316.0,14.09,307.0,17.51,12.17,47.59359,-54.27349
2023-12-17 02:44:00+00:00,326.0,12.65,323.0,14.05,12.17,47.59359,-54.27349
2023-12-17 02:54:00+00:00,324.0,12.68,329.0,15.84,12.17,47.59359,-54.27349
2023-12-17 03:04:00+00:00,320.0,12.92,318.0,15.89,12.17,47.59359,-54.27349
2023-12-17 03:14:00+00:00,318.0,13.18,313.0,16.57,12.17,47.59359,-54.27349
2023-12-17 03:24:00+00:00,332.0,11.68,332.0,13.49,12.17,47.59359,-54.27349
2023-12-17 03:34:00+00:00,328.0,11.38,326.0,13.45,12.17,47.59359,-54.27349
2023-12-17 03:44:00+00:00,333.0,9.53,352.0,11.69,12.17,47.59359,-54.27349
2023-12-17 03:54:00+00:00,330.0,9.36,330.0,11.1,12.17,47.59359,-54.27349
2023-12-17 04:04:00+00:00,319.0,9.35,317.0,11.35,12.17,47.59359,-54.27349
2023-12-17 04:14:00+00:00,325.0,9.19,324.0,11.41,12.17,47.59359,-54.27349
2023-12-17 04:24:00+00:00,320.0,6.8,321.0,7.78,12.17,47.59359,-54.27349
2023-12-17 04:34:00+00:00,321.0,8.35,320.0,10.78,12.17,47.59359,-54.27349
2023-12-17 04:44:00+00:00,323.0,9.14,326.0,11.29,12.17,47.59359,-54.27349
2023-12-17 04:54:00+00:00,326.0,9.58,323.0,10.87,12.17,47.59359,-54.27349
2023-12-17 05:04:00+00:00,323.0,9.18,321.0,10.61,12.17,47.59359,-54.27349
2023-12-17 05:14:00+00:00,329.0,8.23,326.0,10.94,12.17,47.59359,-54.27349
2023-12-17 05:24:00+00:00,309.0,6.01,312.0,7.73,12.17,47.59359,-54.27349
2023-12-17 05:34:00+00:00,314.0,7.22,314.0,8.59,12.17,47.59359,-54.27349
2023-12-17 05:44:00+00:00,326.0,6.08,323.0,8.29,12.17,47.59359,-54.27349
2023-12-17 05:54:00+00:00,322.0,9.08,321.0,11.26,12.17,47.59359,-54.27349
2023-12-17 06:04:00+00:00,323.0,8.96,324.0,10.39,12.17,47.59359,-54.27349
2023-12-17 06:14:00+00:00,312.0,8.93,313.0,10.44,12.09,47.59359,-54.27349
2023-12-17 06:24:00+00:00,320.0,7.73,320.0,9.73,12.09,47.59359,-54.27349
2023-12-17 06:34:00+00:00,319.0,6.47,328.0,7.83,12.09,47.59359,-54.27349
2023-12-17 06:44:00+00:00,317.0,7.78,314.0,9.53,12.09,47.59359,-54.27349
2023-12-17 06:54:00+00:00,294.0,6.82,302.0,7.66,12.09,47.59359,-54.27349
2023-12-17 07:04:00+00:00,292.0,7.9,300.0,10.01,12.09,47.59359,-54.27349
2023-12-17 07:14:00+00:00,307.0,9.62,301.0,10.86,12.09,47.59359,-54.27349
2023-12-17 07:24:00+00:00,314.0,9.26,319.0,11.09,12.09,47.59359,-54.27349
2023-12-17 07:34:00+00:00,314.0,8.91,315.0,9.98,12.09,47.59359,-54.27349
2023-12-17 07:44:00+00:00,305.0,8.36,302.0,9.57,12.09,47.59359,-54.27349
2023-12-17 07:54:00+00:00,293.0,7.29,291.0,8.41,12.09,47.59359,-54.27349
2023-12-17 08:04:00+00:00,292.0,7.86,297.0,9.83,12.09,47.59359,-54.27349
2023-12-17 08:14:00+00:00,300.0,8.78,307.0,10.41,12.09,47.59359,-54.27349
2023-12-17 08:24:00+00:00,300.0,8.17,312.0,9.74,12.09,47.59359,-54.27349
2023-12-17 08:34:00+00:00,310.0,8.62,314.0,10.5,12.09,47.59359,-54.27349
2023-12-17 08:44:00+00:00,312.0,9.27,312.0,10.93,12.09,47.59359,-54.27349
2023-12-17 08:54:00+00:00,318.0,10.23,327.0,14.27,12.09,47.59359,-54.27349
2023-12-17 09:04:00+00:00,319.0,8.75,323.0,10.37,12.09,47.59359,-54.27349
2023-12-17 09:14:01+00:00,322.0,8.7,323.0,9.81,12.01,47.59359,-54.27349
2023-12-17 09:24:01+00:00,310.0,7.83,313.0,9.63,12.01,47.59359,-54.27349
2023-12-17 09:34:01+00:00,314.0,8.31,312.0,9.61,12.01,47.59359,-54.27349
2023-12-17 09:44:01+00:00,302.0,8.3,300.0,10.09,12.01,47.59359,-54.27349
2023-12-17 09:54:01+00:00,314.0,8.85,314.0,10.29,12.01,47.59359,-54.27349
2023-12-17 10:04:01+00:00,303.0,8.82,298.0,10.08,12.01,47.59359,-54.27349
2023-12-17 10:14:00+00:00,311.0,8.93,322.0,11.08,12.01,47.59359,-54.27349
2023-12-17 10:24:00+00:00,310.0,7.92,312.0,10.79,12.01,47.59359,-54.27349
2023-12-17 10:34:00+00:00,294.0,8.53,296.0,10.26,12.01,47.59359,-54.27349
2023-12-17 10:44:00+00:00,292.0,8.63,280.0,9.72,12.01,47.59359,-54.27349
2023-12-17 10:54:00+00:00,287.0,9.18,284.0,11.58,12.01,47.59359,-54.27349
2023-12-17 11:04:00+00:00,293.0,7.42,292.0,8.67,12.01,47.59359,-54.27349
2023-12-17 11:14:00+00:00,295.0,4.96,289.0,7.02,12.01,47.59359,-54.27349
2023-12-17 11:24:00+00:00,289.0,6.9,283.0,8.03,12.01,47.59359,-54.27349
2023-12-17 11:34:00+00:00,272.0,6.2,278.0,7.31,12.01,47.59359,-54.27349
2023-12-17 11:44:00+00:00,280.0,5.76,277.0,7.09,12.01,47.59359,-54.27349
2023-12-17 11:54:00+00:00,279.0,6.88,285.0,7.85,12.01,47.59359,-54.27349
2023-12-17 12:04:00+00:00,289.0,7.33,300.0,8.44,12.01,47.59359,-54.27349
2023-12-17 12:14:00+00:00,282.0,5.21,277.0,6.92,14.08,47.59359,-54.27349
2023-12-17 12:24:00+00:00,270.0,5.99,272.0,7.57,14.08,47.59359,-54.27349
2023-12-17 12:34:00+00:00,263.0,3.96,266.0,6.52,14.08,47.59359,-54.27349
2023-12-17 12:44:00+00:00,270.0,3.59,265.0,6.13,14.08,47.59359,-54.27349
2023-12-17 12:54:00+00:00,251.0,4.73,258.0,6.7,14.08,47.59359,-54.27349
2023-12-17 13:04:00+00:00,268.0,6.63,269.0,7.73,14.08,47.59359,-54.27349
2023-12-17 13:14:00+00:00,267.0,6.87,274.0,7.58,14.48,47.59359,-54.27349
2023-12-17 13:24:00+00:00,252.0,6.98,253.0,8.52,14.48,47.59359,-54.27349
2023-12-17 13:34:00+00:00,238.0,5.93,243.0,7.9,14.48,47.59359,-54.27349
2023-12-17 13:44:00+00:00,230.0,5.42,233.0,6.28,14.48,47.59359,-54.27349
2023-12-17 13:54:00+00:00,229.0,5.23,248.0,6.95,14.48,47.59359,-54.27349
2023-12-17 14:04:00+00:00,233.0,5.48,230.0,7.34,14.48,47.59359,-54.27349
2023-12-17 14:14:00+00:00,233.0,5.49,234.0,6.24,14.56,47.59359,-54.27349
2023-12-17 14:24:00+00:00,234.0,5.5,239.0,6.38,14.56,47.59359,-54.27349
2023-12-17 14:34:00+00:00,231.0,5.12,239.0,6.1,14.56,47.59359,-54.27349
2023-12-17 14:44:00+00:00,240.0,5.23,239.0,5.75,14.56,47.59359,-54.27349
2023-12-17 14:54:00+00:00,237.0,5.77,238.0,6.85,14.56,47.59359,-54.27349
2023-12-17 15:04:00+00:00,246.0,7.11,249.0,9.64,14.56,47.59359,-54.27349
2023-12-17 15:14:00+00:00,253.0,8.46,252.0,10.02,14.24,47.59359,-54.27349
2023-12-17 15:24:00+00:00,252.0,6.71,241.0,8.81,14.24,47.59359,-54.27349
2023-12-17 15:34:00+00:00,244.0,6.7,241.0,8.19,14.24,47.59359,-54.27349
2023-12-17 15:44:00+00:00,247.0,6.47,253.0,7.65,14.24,47.59359,-54.27349
2023-12-17 15:54:00+00:00,251.0,8.03,254.0,9.46,14.24,47.59359,-54.27349
2023-12-17 16:04:00+00:00,261.0,7.57,264.0,9.66,14.24,47.59359,-54.27349
2023-12-17 16:14:00+00:00,236.0,6.63,251.0,8.43,14.48,47.59359,-54.27349
2023-12-17 16:24:00+00:00,248.0,7.18,252.0,9.3,14.48,47.59359,-54.27349
2023-12-17 16:34:00+00:00,248.0,8.18,247.0,9.68,14.48,47.59359,-54.27349
2023-12-17 16:44:00+00:00,231.0,7.26,249.0,10.44,14.48,47.59359,-54.27349
2023-12-17 16:54:00+00:00,243.0,10.26,241.0,11.58,14.48,47.59359,-54.27349
2023-12-17 17:04:00+00:00,221.0,6.79,230.0,8.45,14.48,47.59359,-54.27349
2023-12-17 17:14:00+00:00,238.0,8.74,244.0,10.59,14.4,47.59359,-54.27349
2023-12-17 17:24:00+00:00,226.0,6.93,236.0,9.83,14.4,47.59359,-54.27349
2023-12-17 17:34:00+00:00,235.0,8.53,242.0,10.7,14.4,47.59359,-54.27349
2023-12-17 17:44:00+00:00,235.0,9.39,240.0,10.73,14.4,47.59359,-54.27349
2023-12-17 17:54:00+00:00,247.0,9.24,227.0,11.71,14.4,47.59359,-54.27349
2023-12-17 18:04:00+00:00,240.0,9.74,238.0,11.01,14.4,47.59359,-54.27349
2023-12-17 18:14:00+00:00,235.0,9.42,240.0,10.81,14.4,47.59359,-54.27349
2023-12-17 18:24:00+00:00,234.0,9.82,234.0,10.89,14.4,47.59359,-54.27349
2023-12-17 18:34:00+00:00,241.0,10.67,245.0,13.48,14.4,47.59359,-54.27349
2023-12-17 18:44:00+00:00,248.0,9.2,256.0,11.18,14.4,47.59359,-54.27349
2023-12-17 18:54:00+00:00,242.0,9.36,244.0,12.06,14.4,47.59359,-54.27349
2023-12-17 19:04:00+00:00,251.0,9.98,254.0,12.19,14.4,47.59359,-54.27349
2023-12-17 19:14:00+00:00,249.0,8.59,247.0,9.86,13.13,47.59359,-54.27349
2023-12-17 19:24:00+00:00,246.0,10.27,252.0,12.76,13.13,47.59359,-54.27349
2023-12-17 19:34:00+00:00,244.0,9.53,246.0,12.19,13.13,47.59359,-54.27349
2023-12-17 19:44:00+00:00,237.0,9.41,239.0,10.72,13.13,47.59359,-54.27349
2023-12-17 19:54:00+00:00,234.0,9.72,232.0,10.98,13.13,47.59359,-54.27349
2023-12-17 20:04:00+00:00,235.0,10.05,245.0,12.42,13.13,47.59359,-54.27349
2023-12-17 20:14:00+00:00,238.0,10.64,248.0,13.16,12.49,47.59359,-54.27349
2023-12-17 20:24:00+00:00,240.0,9.96,232.0,13.09,12.49,47.59359,-54.27349
2023-12-17 20:34:00+00:00,241.0,9.82,252.0,11.39,12.49,47.59359,-54.27349
2023-12-17 20:44:00+00:00,248.0,9.97,247.0,12.04,12.49,47.59359,-54.27349
2023-12-17 20:54:00+00:00,250.0,10.38,256.0,12.57,12.49,47.59359,-54.27349
2023-12-17 21:04:00+00:00,236.0,10.19,240.0,12.6,12.49,47.59359,-54.27349
2023-12-17 21:14:00+00:00,237.0,10.25,239.0,12.45,12.41,47.59359,-54.27349
2023-12-17 21:24:00+00:00,245.0,11.71,251.0,13.25,12.41,47.59359,-54.27349
2023-12-17 21:34:00+00:00,242.0,10.78,238.0,12.7,12.41,47.59359,-54.27349
2023-12-17 21:44:00+00:00,241.0,10.4,241.0,12.1,12.41,47.59359,-54.27349
2023-12-17 21:54:00+00:00,237.0,10.23,242.0,12.31,12.41,47.59359,-54.27349
2023-12-17 22:04:00+00:00,233.0,10.07,232.0,11.52,12.41,47.59359,-54.27349
2023-12-17 22:14:00+00:00,236.0,9.72,238.0,10.72,12.41,47.59359,-54.27349
2023-12-17 22:24:00+00:00,242.0,9.64,232.0,11.04,12.41,47.59359,-54.27349
2023-12-17 22:34:00+00:00,237.0,9.57,238.0,11.25,12.41,47.59359,-54.27349
2023-12-17 22:44:00+00:00,237.0,10.25,237.0,11.06,12.41,47.59359,-54.27349
2023-12-17 22:54:00+00:00,231.0,10.58,229.0,11.73,12.41,47.59359,-54.27349
2023-12-17 23:04:00+00:00,236.0,9.34,236.0,12.38,12.41,47.59359,-54.27349
2023-12-17 23:14:00+00:00,233.0,10.17,224.0,11.7,12.33,47.59359,-54.27349
2023-12-17 23:24:00+00:00,232.0,10.24,226.0,11.78,12.33,47.59359,-54.27349
2023-12-17 23:34:00+00:00,231.0,9.8,233.0,11.06,12.33,47.59359,-54.27349
2023-12-17 23:44:00+00:00,227.0,10.36,230.0,11.67,12.33,47.59359,-54.27349
2023-12-17 23:54:00+00:00,229.0,10.53,224.0,11.9,12.33,47.59359,-54.27349
